Year,Month,Day,Hour,Minute,Value (Times are PST for temperature in C)
2010,07,17,00,00,14.50
2010,07,17,00,01,14.50
2010,07,17,00,02,14.50
2010,07,17,00,03,14.40
2010,07,17,00,04,14.40
2010,07,17,00,05,14.40
2010,07,17,00,06,14.30
2010,07,17,00,07,14.30
2010,07,17,00,08,14.20
2010,07,17,00,09,14.20
2010,07,17,00,10,14.20
2010,07,17,00,11,14.20
2010,07,17,00,12,14.20
2010,07,17,00,13,14.20
2010,07,17,00,14,14.20
2010,07,17,00,15,14.20
2010,07,17,00,16,14.20
2010,07,17,00,17,14.20
2010,07,17,00,18,14.20
2010,07,17,00,19,14.20
2010,07,17,00,20,14.10
2010,07,17,00,21,14.10
2010,07,17,00,22,14.10
2010,07,17,00,23,14.10
2010,07,17,00,24,14.10
2010,07,17,00,25,14.10
2010,07,17,00,26,14.20
2010,07,17,00,27,14.20
2010,07,17,00,28,14.20
2010,07,17,00,29,14.20
2010,07,17,00,30,14.20
2010,07,17,00,31,14.20
2010,07,17,00,32,14.10
2010,07,17,00,33,14.10
2010,07,17,00,34,14.10
2010,07,17,00,35,14.10
2010,07,17,00,36,14.10
2010,07,17,00,37,14.10
2010,07,17,00,38,14.10
2010,07,17,00,39,14.00
2010,07,17,00,40,14.00
2010,07,17,00,41,14.00
2010,07,17,00,42,14.00
2010,07,17,00,43,13.90
2010,07,17,00,44,13.90
2010,07,17,00,45,13.90
2010,07,17,00,46,13.90
2010,07,17,00,47,13.80
2010,07,17,00,48,13.80
2010,07,17,00,49,13.80
2010,07,17,00,50,13.80
2010,07,17,00,51,13.70
2010,07,17,00,52,13.70
2010,07,17,00,53,13.70
2010,07,17,00,54,13.70
2010,07,17,00,55,13.70
2010,07,17,00,56,13.60
2010,07,17,00,57,13.60
2010,07,17,00,58,13.60
2010,07,17,00,59,13.60
2010,07,17,01,00,13.50
2010,07,17,01,01,13.50
2010,07,17,01,02,13.50
2010,07,17,01,03,13.50
2010,07,17,01,04,13.40
2010,07,17,01,05,13.40
2010,07,17,01,06,13.40
2010,07,17,01,07,13.40
2010,07,17,01,08,13.40
2010,07,17,01,09,13.30
2010,07,17,01,10,13.30
2010,07,17,01,11,13.30
2010,07,17,01,12,13.30
2010,07,17,01,13,13.30
2010,07,17,01,14,13.30
2010,07,17,01,15,13.30
2010,07,17,01,16,13.30
2010,07,17,01,17,13.30
2010,07,17,01,18,13.20
2010,07,17,01,19,13.20
2010,07,17,01,20,13.20
2010,07,17,01,21,13.10
2010,07,17,01,22,13.10
2010,07,17,01,23,13.10
2010,07,17,01,24,13.10
2010,07,17,01,25,13.10
2010,07,17,01,26,13.00
2010,07,17,01,27,13.00
2010,07,17,01,28,13.00
2010,07,17,01,29,13.00
2010,07,17,01,30,12.90
2010,07,17,01,31,12.90
2010,07,17,01,32,12.90
2010,07,17,01,33,12.90
2010,07,17,01,34,12.90
2010,07,17,01,35,12.90
2010,07,17,01,36,12.80
2010,07,17,01,37,12.80
2010,07,17,01,38,12.80
2010,07,17,01,39,12.80
2010,07,17,01,40,12.80
2010,07,17,01,41,12.80
2010,07,17,01,42,12.80
2010,07,17,01,43,12.80
2010,07,17,01,44,12.80
2010,07,17,01,45,12.80
2010,07,17,01,46,12.70
2010,07,17,01,47,12.70
2010,07,17,01,48,12.70
2010,07,17,01,49,12.70
2010,07,17,01,50,12.70
2010,07,17,01,51,12.70
2010,07,17,01,52,12.70
2010,07,17,01,53,12.70
2010,07,17,01,54,12.70
2010,07,17,01,55,12.60
2010,07,17,01,56,12.60
2010,07,17,01,57,12.60
2010,07,17,01,58,12.60
2010,07,17,01,59,12.60
2010,07,17,02,00,12.60
2010,07,17,02,01,12.60
2010,07,17,02,02,12.60
2010,07,17,02,03,12.60
2010,07,17,02,04,12.60
2010,07,17,02,05,12.50
2010,07,17,02,06,12.50
2010,07,17,02,07,12.50
2010,07,17,02,08,12.50
2010,07,17,02,09,12.50
2010,07,17,02,10,12.50
2010,07,17,02,11,12.50
2010,07,17,02,12,12.50
2010,07,17,02,13,12.50
2010,07,17,02,14,12.50
2010,07,17,02,15,12.40
2010,07,17,02,16,12.40
2010,07,17,02,17,12.40
2010,07,17,02,18,12.40
2010,07,17,02,19,12.40
2010,07,17,02,20,12.40
2010,07,17,02,21,12.40
2010,07,17,02,22,12.40
2010,07,17,02,23,12.40
2010,07,17,02,24,12.40
2010,07,17,02,25,12.30
2010,07,17,02,26,12.30
2010,07,17,02,27,12.30
2010,07,17,02,28,12.30
2010,07,17,02,29,12.30
2010,07,17,02,30,12.30
2010,07,17,02,31,12.20
2010,07,17,02,32,12.20
2010,07,17,02,33,12.10
2010,07,17,02,34,12.10
2010,07,17,02,35,12.10
2010,07,17,02,36,12.10
2010,07,17,02,37,12.00
2010,07,17,02,38,12.00
2010,07,17,02,39,12.00
2010,07,17,02,40,12.00
2010,07,17,02,41,11.90
2010,07,17,02,42,11.90
2010,07,17,02,43,11.90
2010,07,17,02,44,11.90
2010,07,17,02,45,11.90
2010,07,17,02,46,11.90
2010,07,17,02,47,11.80
2010,07,17,02,48,11.80
2010,07,17,02,49,11.80
2010,07,17,02,50,11.80
2010,07,17,02,51,11.80
2010,07,17,02,52,11.80
2010,07,17,02,53,11.80
2010,07,17,02,54,11.80
2010,07,17,02,55,11.80
2010,07,17,02,56,11.80
2010,07,17,02,57,11.80
2010,07,17,02,58,11.80
2010,07,17,02,59,11.80
2010,07,17,03,00,11.80
2010,07,17,03,01,11.80
2010,07,17,03,02,11.80
2010,07,17,03,03,11.80
2010,07,17,03,04,11.80
2010,07,17,03,05,11.80
2010,07,17,03,06,11.80
2010,07,17,03,07,11.80
2010,07,17,03,08,11.80
2010,07,17,03,09,11.80
2010,07,17,03,10,11.80
2010,07,17,03,11,11.80
2010,07,17,03,12,11.80
2010,07,17,03,13,11.80
2010,07,17,03,14,11.80
2010,07,17,03,15,11.80
2010,07,17,03,16,11.80
2010,07,17,03,17,11.80
2010,07,17,03,18,11.80
2010,07,17,03,19,11.80
2010,07,17,03,20,11.80
2010,07,17,03,21,11.80
2010,07,17,03,22,11.80
2010,07,17,03,23,11.80
2010,07,17,03,24,11.80
2010,07,17,03,25,11.80
2010,07,17,03,26,11.70
2010,07,17,03,27,11.70
2010,07,17,03,28,11.70
2010,07,17,03,29,11.70
2010,07,17,03,30,11.70
2010,07,17,03,31,11.70
2010,07,17,03,32,11.70
2010,07,17,03,33,11.70
2010,07,17,03,34,11.70
2010,07,17,03,35,11.60
2010,07,17,03,36,11.60
2010,07,17,03,37,11.60
2010,07,17,03,38,11.60
2010,07,17,03,39,11.60
2010,07,17,03,40,11.60
2010,07,17,03,41,11.60
2010,07,17,03,42,11.60
2010,07,17,03,43,11.60
2010,07,17,03,44,11.60
2010,07,17,03,45,11.60
2010,07,17,03,46,11.60
2010,07,17,03,47,11.60
2010,07,17,03,48,11.60
2010,07,17,03,49,11.60
2010,07,17,03,50,11.60
2010,07,17,03,51,11.60
2010,07,17,03,52,11.60
2010,07,17,03,53,11.60
2010,07,17,03,54,11.50
2010,07,17,03,55,11.40
2010,07,17,03,56,11.40
2010,07,17,03,57,11.40
2010,07,17,03,58,11.40
2010,07,17,03,59,11.40
2010,07,17,04,00,11.40
2010,07,17,04,01,11.40
2010,07,17,04,02,11.40
2010,07,17,04,03,11.40
2010,07,17,04,04,11.40
2010,07,17,04,05,11.40
2010,07,17,04,06,11.40
2010,07,17,04,07,11.40
2010,07,17,04,08,11.40
2010,07,17,04,09,11.40
2010,07,17,04,10,11.40
2010,07,17,04,11,11.40
2010,07,17,04,12,11.40
2010,07,17,04,13,11.40
2010,07,17,04,14,11.40
2010,07,17,04,15,11.30
2010,07,17,04,16,11.30
2010,07,17,04,17,11.30
2010,07,17,04,18,11.30
2010,07,17,04,19,11.30
2010,07,17,04,20,11.20
2010,07,17,04,21,11.20
2010,07,17,04,22,11.20
2010,07,17,04,23,11.20
2010,07,17,04,24,11.20
2010,07,17,04,25,11.20
2010,07,17,04,26,11.20
2010,07,17,04,27,11.20
2010,07,17,04,28,11.20
2010,07,17,04,29,11.10
2010,07,17,04,30,11.10
2010,07,17,04,31,11.10
2010,07,17,04,32,11.10
2010,07,17,04,33,11.10
2010,07,17,04,34,11.10
2010,07,17,04,35,11.10
2010,07,17,04,36,11.10
2010,07,17,04,37,11.10
2010,07,17,04,38,11.10
2010,07,17,04,39,11.10
2010,07,17,04,40,11.10
2010,07,17,04,41,11.10
2010,07,17,04,42,11.10
2010,07,17,04,43,11.10
2010,07,17,04,44,11.10
2010,07,17,04,45,11.10
2010,07,17,04,46,11.10
2010,07,17,04,47,11.10
2010,07,17,04,48,11.10
2010,07,17,04,49,11.10
2010,07,17,04,50,11.10
2010,07,17,04,51,11.10
2010,07,17,04,52,11.10
2010,07,17,04,53,11.10
2010,07,17,04,54,11.10
2010,07,17,04,55,11.10
2010,07,17,04,56,11.10
2010,07,17,04,57,11.10
2010,07,17,04,58,11.00
2010,07,17,04,59,10.90
2010,07,17,05,00,10.90
2010,07,17,05,01,10.90
2010,07,17,05,02,10.90
2010,07,17,05,03,10.90
2010,07,17,05,04,10.90
2010,07,17,05,05,10.90
2010,07,17,05,06,10.90
2010,07,17,05,07,10.90
2010,07,17,05,08,10.90
2010,07,17,05,09,10.90
2010,07,17,05,10,10.90
2010,07,17,05,11,10.90
2010,07,17,05,12,10.90
2010,07,17,05,13,10.80
2010,07,17,05,14,10.80
2010,07,17,05,15,10.80
2010,07,17,05,16,10.80
2010,07,17,05,17,10.80
2010,07,17,05,18,10.70
2010,07,17,05,19,10.70
2010,07,17,05,20,10.70
2010,07,17,05,21,10.70
2010,07,17,05,22,10.70
2010,07,17,05,23,10.70
2010,07,17,05,24,10.70
2010,07,17,05,25,10.60
2010,07,17,05,26,10.60
2010,07,17,05,27,10.60
2010,07,17,05,28,10.60
2010,07,17,05,29,10.60
2010,07,17,05,30,10.60
2010,07,17,05,31,10.60
2010,07,17,05,32,10.60
2010,07,17,05,33,10.60
2010,07,17,05,34,10.60
2010,07,17,05,35,10.60
2010,07,17,05,36,10.60
2010,07,17,05,37,10.70
2010,07,17,05,38,10.70
2010,07,17,05,39,10.70
2010,07,17,05,40,10.70
2010,07,17,05,41,10.70
2010,07,17,05,42,10.70
2010,07,17,05,43,10.70
2010,07,17,05,44,10.70
2010,07,17,05,45,10.70
2010,07,17,05,46,10.70
2010,07,17,05,47,10.70
2010,07,17,05,48,10.80
2010,07,17,05,49,10.80
2010,07,17,05,50,10.80
2010,07,17,05,51,10.80
2010,07,17,05,52,10.90
2010,07,17,05,53,10.90
2010,07,17,05,54,10.90
2010,07,17,05,55,10.90
2010,07,17,05,56,10.90
2010,07,17,05,57,10.90
2010,07,17,05,58,10.90
2010,07,17,05,59,10.90
2010,07,17,06,00,10.90
2010,07,17,06,01,11.00
2010,07,17,06,02,11.00
2010,07,17,06,03,11.10
2010,07,17,06,04,11.10
2010,07,17,06,05,11.10
2010,07,17,06,06,11.10
2010,07,17,06,07,11.10
2010,07,17,06,08,11.10
2010,07,17,06,09,11.10
2010,07,17,06,10,11.20
2010,07,17,06,11,11.30
2010,07,17,06,12,11.30
2010,07,17,06,13,11.30
2010,07,17,06,14,11.40
2010,07,17,06,15,11.40
2010,07,17,06,16,11.40
2010,07,17,06,17,11.50
2010,07,17,06,18,11.60
2010,07,17,06,19,11.60
2010,07,17,06,20,11.60
2010,07,17,06,21,11.70
2010,07,17,06,22,11.70
2010,07,17,06,23,11.80
2010,07,17,06,24,11.80
2010,07,17,06,25,11.80
2010,07,17,06,26,11.90
2010,07,17,06,27,12.00
2010,07,17,06,28,12.00
2010,07,17,06,29,12.10
2010,07,17,06,30,12.10
2010,07,17,06,31,12.20
2010,07,17,06,32,12.30
2010,07,17,06,33,12.30
2010,07,17,06,34,12.30
2010,07,17,06,35,12.40
2010,07,17,06,36,12.40
2010,07,17,06,37,12.50
2010,07,17,06,38,12.50
2010,07,17,06,39,12.60
2010,07,17,06,40,12.60
2010,07,17,06,41,12.70
2010,07,17,06,42,12.80
2010,07,17,06,43,12.90
2010,07,17,06,44,12.90
2010,07,17,06,45,13.00
2010,07,17,06,46,13.10
2010,07,17,06,47,13.10
2010,07,17,06,48,13.20
2010,07,17,06,49,13.20
2010,07,17,06,50,13.30
2010,07,17,06,51,13.30
2010,07,17,06,52,13.30
2010,07,17,06,53,13.30
2010,07,17,06,54,13.40
2010,07,17,06,55,13.40
2010,07,17,06,56,13.40
2010,07,17,06,57,13.50
2010,07,17,06,58,13.50
2010,07,17,06,59,13.50
2010,07,17,07,00,13.60
2010,07,17,07,01,13.60
2010,07,17,07,02,13.60
2010,07,17,07,03,13.70
2010,07,17,07,04,13.70
2010,07,17,07,05,13.70
2010,07,17,07,06,13.70
2010,07,17,07,07,13.80
2010,07,17,07,08,13.80
2010,07,17,07,09,13.90
2010,07,17,07,10,14.00
2010,07,17,07,11,14.00
2010,07,17,07,12,14.10
2010,07,17,07,13,14.10
2010,07,17,07,14,14.20
2010,07,17,07,15,14.20
2010,07,17,07,16,14.30
2010,07,17,07,17,14.30
2010,07,17,07,18,14.30
2010,07,17,07,19,14.40
2010,07,17,07,20,14.40
2010,07,17,07,21,14.40
2010,07,17,07,22,14.40
2010,07,17,07,23,14.50
2010,07,17,07,24,14.50
2010,07,17,07,25,14.60
2010,07,17,07,26,14.60
2010,07,17,07,27,14.70
2010,07,17,07,28,14.70
2010,07,17,07,29,14.70
2010,07,17,07,30,14.80
2010,07,17,07,31,14.90
2010,07,17,07,32,15.00
2010,07,17,07,33,15.00
2010,07,17,07,34,15.10
2010,07,17,07,35,15.10
2010,07,17,07,36,15.20
2010,07,17,07,37,15.30
2010,07,17,07,38,15.30
2010,07,17,07,39,15.30
2010,07,17,07,40,15.30
2010,07,17,07,41,15.30
2010,07,17,07,42,15.40
2010,07,17,07,43,15.50
2010,07,17,07,44,15.50
2010,07,17,07,45,15.50
2010,07,17,07,46,15.60
2010,07,17,07,47,15.50
2010,07,17,07,48,15.50
2010,07,17,07,49,15.50
2010,07,17,07,50,15.50
2010,07,17,07,51,15.50
2010,07,17,07,52,15.50
2010,07,17,07,53,15.60
2010,07,17,07,54,15.60
2010,07,17,07,55,15.70
2010,07,17,07,56,15.70
2010,07,17,07,57,15.80
2010,07,17,07,58,15.80
2010,07,17,07,59,15.80
2010,07,17,08,00,15.80
2010,07,17,08,01,15.80
2010,07,17,08,02,15.90
2010,07,17,08,03,15.90
2010,07,17,08,04,15.80
2010,07,17,08,05,15.90
2010,07,17,08,06,15.90
2010,07,17,08,07,16.00
2010,07,17,08,08,16.10
2010,07,17,08,09,16.10
2010,07,17,08,10,16.20
2010,07,17,08,11,16.30
2010,07,17,08,12,16.40
2010,07,17,08,13,16.50
2010,07,17,08,14,16.60
2010,07,17,08,15,16.70
2010,07,17,08,16,16.80
2010,07,17,08,17,16.90
2010,07,17,08,18,16.90
2010,07,17,08,19,16.90
2010,07,17,08,20,16.90
2010,07,17,08,21,16.90
2010,07,17,08,22,16.90
2010,07,17,08,23,16.80
2010,07,17,08,24,16.70
2010,07,17,08,25,16.70
2010,07,17,08,26,16.70
2010,07,17,08,27,16.70
2010,07,17,08,28,16.70
2010,07,17,08,29,16.70
2010,07,17,08,30,16.70
2010,07,17,08,31,16.80
2010,07,17,08,32,16.80
2010,07,17,08,33,16.90
2010,07,17,08,34,16.90
2010,07,17,08,35,17.00
2010,07,17,08,36,17.00
2010,07,17,08,37,17.10
2010,07,17,08,38,17.20
2010,07,17,08,39,17.20
2010,07,17,08,40,17.20
2010,07,17,08,41,17.20
2010,07,17,08,42,17.20
2010,07,17,08,43,17.20
2010,07,17,08,44,17.20
2010,07,17,08,45,17.20
2010,07,17,08,46,17.30
2010,07,17,08,47,17.30
2010,07,17,08,48,17.30
2010,07,17,08,49,17.30
2010,07,17,08,50,17.30
2010,07,17,08,51,17.30
2010,07,17,08,52,17.40
2010,07,17,08,53,17.40
2010,07,17,08,54,17.50
2010,07,17,08,55,17.70
2010,07,17,08,56,17.70
2010,07,17,08,57,17.70
2010,07,17,08,58,17.80
2010,07,17,08,59,17.80
2010,07,17,09,00,17.80
2010,07,17,09,01,17.90
2010,07,17,09,02,17.90
2010,07,17,09,03,17.90
2010,07,17,09,04,18.00
2010,07,17,09,05,18.10
2010,07,17,09,06,18.20
2010,07,17,09,07,18.20
2010,07,17,09,08,18.20
2010,07,17,09,09,18.20
2010,07,17,09,10,18.20
2010,07,17,09,11,18.20
2010,07,17,09,12,18.10
2010,07,17,09,13,17.90
2010,07,17,09,14,17.90
2010,07,17,09,15,17.90
2010,07,17,09,16,17.90
2010,07,17,09,17,17.90
2010,07,17,09,18,17.90
2010,07,17,09,19,18.00
2010,07,17,09,20,18.10
2010,07,17,09,21,18.10
2010,07,17,09,22,17.90
2010,07,17,09,23,17.90
2010,07,17,09,24,17.80
2010,07,17,09,25,17.60
2010,07,17,09,26,17.40
2010,07,17,09,27,17.20
2010,07,17,09,28,17.10
2010,07,17,09,29,16.80
2010,07,17,09,30,16.60
2010,07,17,09,31,16.40
2010,07,17,09,32,16.30
2010,07,17,09,33,16.10
2010,07,17,09,34,16.10
2010,07,17,09,35,16.10
2010,07,17,09,36,16.10
2010,07,17,09,37,16.10
2010,07,17,09,38,15.90
2010,07,17,09,39,15.80
2010,07,17,09,40,15.80
2010,07,17,09,41,15.80
2010,07,17,09,42,15.80
2010,07,17,09,43,15.80
2010,07,17,09,44,15.80
2010,07,17,09,45,15.70
2010,07,17,09,46,15.70
2010,07,17,09,47,15.70
2010,07,17,09,48,15.60
2010,07,17,09,49,15.50
2010,07,17,09,50,15.50
2010,07,17,09,51,15.50
2010,07,17,09,52,15.40
2010,07,17,09,53,15.30
2010,07,17,09,54,15.30
2010,07,17,09,55,15.30
2010,07,17,09,56,15.40
2010,07,17,09,57,15.40
2010,07,17,09,58,15.50
2010,07,17,09,59,15.50
2010,07,17,10,00,15.50
2010,07,17,10,01,15.50
2010,07,17,10,02,15.40
2010,07,17,10,03,15.40
2010,07,17,10,04,15.50
2010,07,17,10,05,15.40
2010,07,17,10,06,15.30
2010,07,17,10,07,15.30
2010,07,17,10,08,15.30
2010,07,17,10,09,15.20
2010,07,17,10,10,15.20
2010,07,17,10,11,15.30
2010,07,17,10,12,15.40
2010,07,17,10,13,15.30
2010,07,17,10,14,15.30
2010,07,17,10,15,15.40
2010,07,17,10,16,15.40
2010,07,17,10,17,15.40
2010,07,17,10,18,15.30
2010,07,17,10,19,15.30
2010,07,17,10,20,15.20
2010,07,17,10,21,15.20
2010,07,17,10,22,15.20
2010,07,17,10,23,15.30
2010,07,17,10,24,15.30
2010,07,17,10,25,15.40
2010,07,17,10,26,15.40
2010,07,17,10,27,15.50
2010,07,17,10,28,15.50
2010,07,17,10,29,15.60
2010,07,17,10,30,15.70
2010,07,17,10,31,15.80
2010,07,17,10,32,16.00
2010,07,17,10,33,16.10
2010,07,17,10,34,16.20
2010,07,17,10,35,16.30
2010,07,17,10,36,16.30
2010,07,17,10,37,16.30
2010,07,17,10,38,16.30
2010,07,17,10,39,16.30
2010,07,17,10,40,16.40
2010,07,17,10,41,16.40
2010,07,17,10,42,16.50
2010,07,17,10,43,16.60
2010,07,17,10,44,16.70
2010,07,17,10,45,16.70
2010,07,17,10,46,16.70
2010,07,17,10,47,16.70
2010,07,17,10,48,16.70
2010,07,17,10,49,16.70
2010,07,17,10,50,16.70
2010,07,17,10,51,16.70
2010,07,17,10,52,16.80
2010,07,17,10,53,16.90
2010,07,17,10,54,17.00
2010,07,17,10,55,17.00
2010,07,17,10,56,17.00
2010,07,17,10,57,17.00
2010,07,17,10,58,17.00
2010,07,17,10,59,17.00
2010,07,17,11,00,17.00
2010,07,17,11,01,17.10
2010,07,17,11,02,17.40
2010,07,17,11,03,17.70
2010,07,17,11,04,17.90
2010,07,17,11,05,17.90
2010,07,17,11,06,18.00
2010,07,17,11,07,18.10
2010,07,17,11,08,18.10
2010,07,17,11,09,18.00
2010,07,17,11,10,17.90
2010,07,17,11,11,17.90
2010,07,17,11,12,17.90
2010,07,17,11,13,18.00
2010,07,17,11,14,18.10
2010,07,17,11,15,18.20
2010,07,17,11,16,18.20
2010,07,17,11,17,18.20
2010,07,17,11,18,18.30
2010,07,17,11,19,18.40
2010,07,17,11,20,18.40
2010,07,17,11,21,18.50
2010,07,17,11,22,18.50
2010,07,17,11,23,18.60
2010,07,17,11,24,18.80
2010,07,17,11,25,18.90
2010,07,17,11,26,18.80
2010,07,17,11,27,18.70
2010,07,17,11,28,18.60
2010,07,17,11,29,18.50
2010,07,17,11,30,18.40
2010,07,17,11,31,18.20
2010,07,17,11,32,18.10
2010,07,17,11,33,18.00
2010,07,17,11,34,17.90
2010,07,17,11,35,17.70
2010,07,17,11,36,17.60
2010,07,17,11,37,17.50
2010,07,17,11,38,17.60
2010,07,17,11,39,17.50
2010,07,17,11,40,17.50
2010,07,17,11,41,17.40
2010,07,17,11,42,17.40
2010,07,17,11,43,17.40
2010,07,17,11,44,17.50
2010,07,17,11,45,17.70
2010,07,17,11,46,17.70
2010,07,17,11,47,17.80
2010,07,17,11,48,17.80
2010,07,17,11,49,17.70
2010,07,17,11,50,17.70
2010,07,17,11,51,17.50
2010,07,17,11,52,17.30
2010,07,17,11,53,17.10
2010,07,17,11,54,16.90
2010,07,17,11,55,16.70
2010,07,17,11,56,16.80
2010,07,17,11,57,16.80
2010,07,17,11,58,16.90
2010,07,17,11,59,16.90
2010,07,17,12,00,16.80
2010,07,17,12,01,16.80
2010,07,17,12,02,16.80
2010,07,17,12,03,16.80
2010,07,17,12,04,16.90
2010,07,17,12,05,17.00
2010,07,17,12,06,17.00
2010,07,17,12,07,17.00
2010,07,17,12,08,17.00
2010,07,17,12,09,16.90
2010,07,17,12,10,16.80
2010,07,17,12,11,16.80
2010,07,17,12,12,16.90
2010,07,17,12,13,17.00
2010,07,17,12,14,17.00
2010,07,17,12,15,17.00
2010,07,17,12,16,17.10
2010,07,17,12,17,17.20
2010,07,17,12,18,17.20
2010,07,17,12,19,17.30
2010,07,17,12,20,17.50
2010,07,17,12,21,17.60
2010,07,17,12,22,17.60
2010,07,17,12,23,17.70
2010,07,17,12,24,17.60
2010,07,17,12,25,17.30
2010,07,17,12,26,17.30
2010,07,17,12,27,17.40
2010,07,17,12,28,17.40
2010,07,17,12,29,17.20
2010,07,17,12,30,17.10
2010,07,17,12,31,17.10
2010,07,17,12,32,17.10
2010,07,17,12,33,17.20
2010,07,17,12,34,17.30
2010,07,17,12,35,17.30
2010,07,17,12,36,17.40
2010,07,17,12,37,17.40
2010,07,17,12,38,17.40
2010,07,17,12,39,17.30
2010,07,17,12,40,17.30
2010,07,17,12,41,17.30
2010,07,17,12,42,17.30
2010,07,17,12,43,17.40
2010,07,17,12,44,17.50
2010,07,17,12,45,17.50
2010,07,17,12,46,17.50
2010,07,17,12,47,17.60
2010,07,17,12,48,17.50
2010,07,17,12,49,17.50
2010,07,17,12,50,17.40
2010,07,17,12,51,17.10
2010,07,17,12,52,16.90
2010,07,17,12,53,16.80
2010,07,17,12,54,16.80
2010,07,17,12,55,16.80
2010,07,17,12,56,16.80
2010,07,17,12,57,16.80
2010,07,17,12,58,16.70
2010,07,17,12,59,16.70
2010,07,17,13,00,16.80
2010,07,17,13,01,16.80
2010,07,17,13,02,16.80
2010,07,17,13,03,16.90
2010,07,17,13,04,17.00
2010,07,17,13,05,17.10
2010,07,17,13,06,17.20
2010,07,17,13,07,17.30
2010,07,17,13,08,17.20
2010,07,17,13,09,17.10
2010,07,17,13,10,17.00
2010,07,17,13,11,16.90
2010,07,17,13,12,16.70
2010,07,17,13,13,16.80
2010,07,17,13,14,16.80
2010,07,17,13,15,17.00
2010,07,17,13,16,17.00
2010,07,17,13,17,17.10
2010,07,17,13,18,17.10
2010,07,17,13,19,17.10
2010,07,17,13,20,17.10
2010,07,17,13,21,17.10
2010,07,17,13,22,17.20
2010,07,17,13,23,17.30
2010,07,17,13,24,17.30
2010,07,17,13,25,17.40
2010,07,17,13,26,17.40
2010,07,17,13,27,17.30
2010,07,17,13,28,17.40
2010,07,17,13,29,17.50
2010,07,17,13,30,17.60
2010,07,17,13,31,17.70
2010,07,17,13,32,17.70
2010,07,17,13,33,17.60
2010,07,17,13,34,17.60
2010,07,17,13,35,17.70
2010,07,17,13,36,17.60
2010,07,17,13,37,17.50
2010,07,17,13,38,17.40
2010,07,17,13,39,17.20
2010,07,17,13,40,17.10
2010,07,17,13,41,17.00
2010,07,17,13,42,16.90
2010,07,17,13,43,16.80
2010,07,17,13,44,16.70
2010,07,17,13,45,16.80
2010,07,17,13,46,16.90
2010,07,17,13,47,16.90
2010,07,17,13,48,16.90
2010,07,17,13,49,16.90
2010,07,17,13,50,16.90
2010,07,17,13,51,17.00
2010,07,17,13,52,17.10
2010,07,17,13,53,17.20
2010,07,17,13,54,17.20
2010,07,17,13,55,17.30
2010,07,17,13,56,17.20
2010,07,17,13,57,17.10
2010,07,17,13,58,17.10
2010,07,17,13,59,17.00
2010,07,17,14,00,16.90
2010,07,17,14,01,16.90
2010,07,17,14,02,17.00
2010,07,17,14,03,17.20
2010,07,17,14,04,17.30
2010,07,17,14,05,17.30
2010,07,17,14,06,17.40
2010,07,17,14,07,17.60
2010,07,17,14,08,17.70
2010,07,17,14,09,17.60
2010,07,17,14,10,17.60
2010,07,17,14,11,17.50
2010,07,17,14,12,17.40
2010,07,17,14,13,17.50
2010,07,17,14,14,17.70
2010,07,17,14,15,17.70
2010,07,17,14,16,17.70
2010,07,17,14,17,17.80
2010,07,17,14,18,17.90
2010,07,17,14,19,17.90
2010,07,17,14,20,17.90
2010,07,17,14,21,17.90
2010,07,17,14,22,17.80
2010,07,17,14,23,17.50
2010,07,17,14,24,17.30
2010,07,17,14,25,17.20
2010,07,17,14,26,17.30
2010,07,17,14,27,17.30
2010,07,17,14,28,17.10
2010,07,17,14,29,17.10
2010,07,17,14,30,17.20
2010,07,17,14,31,17.40
2010,07,17,14,32,17.60
2010,07,17,14,33,17.80
2010,07,17,14,34,17.90
2010,07,17,14,35,17.90
2010,07,17,14,36,17.90
2010,07,17,14,37,18.10
2010,07,17,14,38,18.10
2010,07,17,14,39,18.20
2010,07,17,14,40,18.20
2010,07,17,14,41,18.10
2010,07,17,14,42,17.90
2010,07,17,14,43,17.80
2010,07,17,14,44,17.50
2010,07,17,14,45,17.40
2010,07,17,14,46,17.30
2010,07,17,14,47,17.30
2010,07,17,14,48,17.30
2010,07,17,14,49,17.30
2010,07,17,14,50,17.30
2010,07,17,14,51,17.30
2010,07,17,14,52,17.30
2010,07,17,14,53,17.30
2010,07,17,14,54,17.20
2010,07,17,14,55,17.10
2010,07,17,14,56,17.10
2010,07,17,14,57,17.00
2010,07,17,14,58,16.80
2010,07,17,14,59,16.70
2010,07,17,15,00,16.50
2010,07,17,15,01,16.50
2010,07,17,15,02,16.60
2010,07,17,15,03,16.70
2010,07,17,15,04,16.90
2010,07,17,15,05,17.00
2010,07,17,15,06,17.10
2010,07,17,15,07,17.00
2010,07,17,15,08,16.90
2010,07,17,15,09,16.80
2010,07,17,15,10,16.70
2010,07,17,15,11,16.70
2010,07,17,15,12,16.80
2010,07,17,15,13,16.90
2010,07,17,15,14,16.80
2010,07,17,15,15,16.90
2010,07,17,15,16,17.00
2010,07,17,15,17,16.90
2010,07,17,15,18,16.80
2010,07,17,15,19,16.70
2010,07,17,15,20,16.70
2010,07,17,15,21,16.70
2010,07,17,15,22,16.70
2010,07,17,15,23,16.70
2010,07,17,15,24,16.60
2010,07,17,15,25,16.50
2010,07,17,15,26,16.40
2010,07,17,15,27,16.40
2010,07,17,15,28,16.50
2010,07,17,15,29,16.60
2010,07,17,15,30,16.60
2010,07,17,15,31,16.60
2010,07,17,15,32,16.50
2010,07,17,15,33,16.50
2010,07,17,15,34,16.50
2010,07,17,15,35,16.40
2010,07,17,15,36,16.30
2010,07,17,15,37,16.20
2010,07,17,15,38,16.20
2010,07,17,15,39,16.10
2010,07,17,15,40,16.10
2010,07,17,15,41,16.00
2010,07,17,15,42,15.90
2010,07,17,15,43,15.80
2010,07,17,15,44,16.00
2010,07,17,15,45,16.10
2010,07,17,15,46,16.10
2010,07,17,15,47,16.00
2010,07,17,15,48,15.90
2010,07,17,15,49,15.80
2010,07,17,15,50,15.90
2010,07,17,15,51,16.00
2010,07,17,15,52,16.10
2010,07,17,15,53,16.10
2010,07,17,15,54,16.10
2010,07,17,15,55,16.10
2010,07,17,15,56,16.10
2010,07,17,15,57,16.10
2010,07,17,15,58,16.10
2010,07,17,15,59,16.10
2010,07,17,16,00,16.10
2010,07,17,16,01,16.20
2010,07,17,16,02,16.10
2010,07,17,16,03,16.10
2010,07,17,16,04,16.00
2010,07,17,16,05,15.80
2010,07,17,16,06,15.80
2010,07,17,16,07,15.80
2010,07,17,16,08,15.80
2010,07,17,16,09,15.70
2010,07,17,16,10,15.70
2010,07,17,16,11,15.70
2010,07,17,16,12,15.70
2010,07,17,16,13,15.90
2010,07,17,16,14,16.00
2010,07,17,16,15,16.10
2010,07,17,16,16,16.10
2010,07,17,16,17,16.20
2010,07,17,16,18,16.20
2010,07,17,16,19,16.30
2010,07,17,16,20,16.40
2010,07,17,16,21,16.20
2010,07,17,16,22,16.10
2010,07,17,16,23,16.20
2010,07,17,16,24,16.30
2010,07,17,16,25,16.30
2010,07,17,16,26,16.30
2010,07,17,16,27,16.30
2010,07,17,16,28,16.20
2010,07,17,16,29,16.20
2010,07,17,16,30,16.10
2010,07,17,16,31,16.10
2010,07,17,16,32,16.10
2010,07,17,16,33,16.20
2010,07,17,16,34,16.30
2010,07,17,16,35,16.40
2010,07,17,16,36,16.40
2010,07,17,16,37,16.40
2010,07,17,16,38,16.40
2010,07,17,16,39,16.50
2010,07,17,16,40,16.70
2010,07,17,16,41,16.80
2010,07,17,16,42,16.90
2010,07,17,16,43,16.90
2010,07,17,16,44,17.00
2010,07,17,16,45,17.00
2010,07,17,16,46,17.00
2010,07,17,16,47,17.00
2010,07,17,16,48,17.00
2010,07,17,16,49,17.00
2010,07,17,16,50,17.10
2010,07,17,16,51,17.10
2010,07,17,16,52,17.10
2010,07,17,16,53,17.10
2010,07,17,16,54,17.10
2010,07,17,16,55,17.10
2010,07,17,16,56,17.10
2010,07,17,16,57,17.00
2010,07,17,16,58,16.90
2010,07,17,16,59,16.90
2010,07,17,17,00,16.90
2010,07,17,17,01,17.00
2010,07,17,17,02,17.10
2010,07,17,17,03,17.20
2010,07,17,17,04,17.30
2010,07,17,17,05,17.20
2010,07,17,17,06,17.20
2010,07,17,17,07,17.20
2010,07,17,17,08,17.20
2010,07,17,17,09,17.20
2010,07,17,17,10,17.20
2010,07,17,17,11,17.30
2010,07,17,17,12,17.30
2010,07,17,17,13,17.30
2010,07,17,17,14,17.40
2010,07,17,17,15,17.50
2010,07,17,17,16,17.60
2010,07,17,17,17,17.60
2010,07,17,17,18,17.50
2010,07,17,17,19,17.40